^^
Datos históricos de la estación: Murcia-Puente Tocinos
 
Diario Informe para Julio 22, 2018 Unidades:  Métrico    Inglés   Ambas
Diario Semanal Mensual Anual Configurable
  Actual: Máximo: Mínimo: Media:
Temperatura: 23.9 °C 24.8 °C 23.8 °C 24.2 °C
Punto de rocio: 21.8 °C 21.8 °C 21.3 °C 21.5 °C
Humedad: 88% 88% 81% 85%
Velocidad viento: 2.3km/h 11.3km/h 0.0km/h 6km/h
Racha viento: 1.9km/h 17.7km/h - -
VientoNW - - ENE
Presión: 1011.0 hPa 1011.6 hPa 1010.7 hPa -
Precipitación: 0.0 mm      
Historical Graphs
 
 
Tabla de datos para Julio 22, 2018
Hora Temperatura Punto de rocio Presión Viento Velocidad viento Racha viento Humedad Intensidad lluvia(por hora) Nubes
00:00 24.8 °C 21.4 °C 1011.5 hPa NE 11.3 km/h 17.7 km/h 81% 0.0 mm CLR
00:05 24.8 °C 21.3 °C 1011.6 hPa NE 10.3 km/h 14.8 km/h 81% 0.0 mm CLR
00:10 24.8 °C 21.5 °C 1011.6 hPa ENE 9.5 km/h 13.0 km/h 82% 0.0 mm CLR
00:15 24.8 °C 21.5 °C 1011.6 hPa NNE 9.5 km/h 13.0 km/h 82% 0.0 mm CLR
00:20 24.7 °C 21.4 °C 1011.5 hPa NE 8.7 km/h 14.8 km/h 82% 0.0 mm FEW
00:25 24.7 °C 21.4 °C 1011.5 hPa NNE 8.7 km/h 13.0 km/h 82% 0.0 mm CLR
00:30 24.6 °C 21.5 °C 1011.5 hPa NE 9.5 km/h 13.0 km/h 83% 0.0 mm FEW
00:35 24.6 °C 21.5 °C 1011.6 hPa NE 9.5 km/h 14.8 km/h 83% 0.0 mm CLR
00:40 24.5 °C 21.4 °C 1011.6 hPa NNE 8.4 km/h 14.8 km/h 83% 0.0 mm FEW
00:45 24.4 °C 21.3 °C 1011.6 hPa ENE 8.4 km/h 11.1 km/h 83% 0.0 mm CLR
00:50 24.4 °C 21.5 °C 1011.6 hPa NE 8.7 km/h 11.1 km/h 84% 0.0 mm FEW
00:55 24.4 °C 21.5 °C 1011.6 hPa NE 8.7 km/h 14.8 km/h 84% 0.0 mm CLR
01:00 24.3 °C 21.4 °C 1011.6 hPa NE 9.7 km/h 12.9 km/h 84% 0.0 mm CLR
01:05 24.3 °C 21.4 °C 1011.5 hPa NNE 8.7 km/h 11.1 km/h 84% 0.0 mm CLR
01:10 24.3 °C 21.4 °C 1011.5 hPa NE 7.6 km/h 11.1 km/h 84% 0.0 mm FEW
01:15 24.3 °C 21.4 °C 1011.5 hPa NNE 7.6 km/h 11.1 km/h 84% 0.0 mm CLR
01:20 24.3 °C 21.4 °C 1011.4 hPa NE 8.4 km/h 11.1 km/h 84% 0.0 mm FEW
01:25 24.4 °C 21.5 °C 1011.4 hPa NE 8.4 km/h 11.1 km/h 84% 0.0 mm CLR
01:30 24.4 °C 21.5 °C 1011.4 hPa East 8.4 km/h 11.1 km/h 84% 0.0 mm FEW
01:35 24.4 °C 21.5 °C 1011.4 hPa NE 8.4 km/h 11.1 km/h 84% 0.0 mm CLR
01:40 24.3 °C 21.4 °C 1011.4 hPa NE 7.6 km/h 13.0 km/h 84% 0.0 mm FEW
01:45 24.3 °C 21.4 °C 1011.4 hPa NE 7.6 km/h 7.6 km/h 84% 0.0 mm CLR
01:50 24.3 °C 21.4 °C 1011.4 hPa East 7.6 km/h 9.3 km/h 84% 0.0 mm SCT
01:55 24.3 °C 21.4 °C 1011.4 hPa NE 7.6 km/h 14.8 km/h 84% 0.0 mm
02:00 24.3 °C 21.6 °C 1011.4 hPa NE 8.0 km/h 14.5 km/h 85% 0.0 mm
02:05 24.2 °C 21.5 °C 1011.4 hPa NE 6.9 km/h 11.1 km/h 85% 0.0 mm
02:10 24.2 °C 21.5 °C 1011.4 hPa NE 8.4 km/h 9.3 km/h 85% 0.0 mm SCT
02:15 24.2 °C 21.5 °C 1011.4 hPa ENE 8.4 km/h 13.0 km/h 85% 0.0 mm
02:20 24.2 °C 21.5 °C 1011.3 hPa NNE 6.9 km/h 9.5 km/h 85% 0.0 mm SCT
02:25 24.2 °C 21.5 °C 1011.3 hPa NE 6.9 km/h 9.3 km/h 85% 0.0 mm
02:30 24.2 °C 21.5 °C 1011.3 hPa NE 5.8 km/h 11.1 km/h 85% 0.0 mm SCT
02:35 24.2 °C 21.5 °C 1011.2 hPa NE 5.8 km/h 9.3 km/h 85% 0.0 mm
02:40 24.1 °C 21.4 °C 1011.2 hPa NE 5.8 km/h 7.4 km/h 85% 0.0 mm SCT
02:45 24.1 °C 21.6 °C 1011.2 hPa NE 5.8 km/h 9.5 km/h 86% 0.0 mm
02:50 24.0 °C 21.5 °C 1011.0 hPa NE 6.4 km/h 9.3 km/h 86% 0.0 mm SCT
02:55 24.1 °C 21.6 °C 1011.0 hPa NE 6.4 km/h 10.0 km/h 86% 0.0 mm
03:00 24.1 °C 21.6 °C 1011.0 hPa NE 8.0 km/h 12.9 km/h 86% 0.0 mm
03:05 24.1 °C 21.4 °C 1010.7 hPa NE 6.4 km/h 9.3 km/h 85% 0.0 mm
03:10 24.1 °C 21.6 °C 1010.7 hPa NE 5.8 km/h 9.3 km/h 86% 0.0 mm SCT
03:15 24.1 °C 21.6 °C 1010.7 hPa NE 5.8 km/h 7.4 km/h 86% 0.0 mm
03:20 24.1 °C 21.6 °C 1010.8 hPa NE 5.8 km/h 6.4 km/h 86% 0.0 mm BKN
03:25 24.1 °C 21.6 °C 1010.8 hPa NE 5.8 km/h 5.6 km/h 86% 0.0 mm OVC
03:30 24.1 °C 21.6 °C 1010.8 hPa NE 3.9 km/h 3.7 km/h 86% 0.0 mm BKN
03:35 24.0 °C 21.5 °C 1010.9 hPa NE 3.9 km/h 5.6 km/h 86% 0.0 mm OVC
03:40 24.0 °C 21.5 °C 1010.9 hPa NE 2.9 km/h   86% 0.0 mm BKN
03:45 23.9 °C 21.4 °C 1010.9 hPa North 2.9 km/h 3.7 km/h 86% 0.0 mm OVC
03:50 23.9 °C 21.4 °C 1010.7 hPa North 2.9 km/h   86% 0.0 mm BKN
03:55 23.8 °C 21.3 °C 1010.7 hPa North 2.9 km/h 5.6 km/h 86% 0.0 mm OVC
04:00 23.8 °C 21.3 °C 1010.7 hPa North 1.6 km/h 3.2 km/h 86% 0.0 mm
04:05 23.8 °C 21.5 °C 1011.0 hPa NNE 2.3 km/h 5.6 km/h 87% 0.0 mm OVC
04:10 23.8 °C 21.5 °C 1011.0 hPa NNE 2.3 km/h   87% 0.0 mm BKN
04:15 23.8 °C 21.5 °C 1011.0 hPa NNE 2.3 km/h 1.9 km/h 87% 0.0 mm OVC
04:20 23.8 °C 21.5 °C 1011.1 hPa Calm     87% 0.0 mm BKN
04:25 23.9 °C 21.6 °C 1011.1 hPa Calm   3.7 km/h 87% 0.0 mm OVC
04:30 23.9 °C 21.6 °C 1011.1 hPa NNE 2.3 km/h 3.7 km/h 87% 0.0 mm BKN
04:35 23.8 °C 21.5 °C 1011.0 hPa NNE 2.3 km/h 1.9 km/h 87% 0.0 mm OVC
04:40 23.8 °C 21.5 °C 1011.0 hPa Calm   5.6 km/h 87% 0.0 mm BKN
04:45 23.8 °C 21.5 °C 1011.0 hPa Calm   3.7 km/h 87% 0.0 mm OVC
04:50 23.8 °C 21.5 °C 1010.9 hPa NW 2.3 km/h 5.6 km/h 87% 0.0 mm BKN
04:55 23.9 °C 21.8 °C 1010.9 hPa NW 2.3 km/h 3.7 km/h 88% 0.0 mm OVC
05:00 23.8 °C 21.7 °C 1010.9 hPa NW 1.6 km/h 1.6 km/h 88% 0.0 mm
05:05 23.9 °C 21.8 °C 1011.0 hPa NW 2.3 km/h 1.9 km/h 88% 0.0 mm OVC
Murcia-Puente Tocinos, España
Compliments of Weather Underground - 1.5 mb

La estación de MeteoMurcia.com, publica sus datos en los siguientes proyectos:

Meteoclimatic www.awekas.at

W3Counter
Web Analytics